User: anonymous   Login
Location: Mentone
(34.5413°N, 85.5351°W)
Time: 07:18:44
(UTC-06:00)
Language:

Cosmos 2026 Rocket - Orbit

View from above orbital plane
View from above orbital plane
View from above satellite
View from above satellite

Ground track
Ground track

The orbit data is extracted from the following two-line orbital elements,

1 20046U 89042B   14326.87087409  .00000073  00000-0  56525-4 0  4008
2 20046 082.9379 281.6281 0042425 174.7282 240.6989 13.77976098280160
Epoch (UTC): 22 November 2014 20:54:03
Eccentricity: 0.0042425
inclination: 82.9379°
perigee height: 940 km
apogee height: 1002 km
right ascension of ascending node: 281.6281°
argument of perigee: 174.7282°
revolutions per day: 13.77976098
mean anomaly at epoch: 240.6989°
orbit number at epoch: 28016

The dashed part of the orbit path shows where the satellite is in the earth's shadow,  

DLR